Weather History for Scottsdale, AZ

Change the Weather History Date:

Monday, August 5, 2013

  Actual Average Record
Temperature  
Mean Temperature 90 °F -  
Max Temperature 99 °F 101 °F 109 °F (1997)
Min Temperature 82 °F 81 °F 77 °F (2002)
Cooling Degree Days 26    
Growing Degree Days 40 (Base 50)    
Moisture  
Dew Point 55 °F    
Average Humidity 31    
Maximum Humidity 40    
Minimum Humidity 15    
Precipitation  
Precipitation 0.00 in - - ()
Sea Level Pressure  
Sea Level Pressure 29.84 in    
Wind  
Wind Speed 4 mph (SSW)    
Max Wind Speed 12 mph    
Max Gust Speed 21 mph    
Visibility 10 miles    
Events Rain    
Averages and records for this station are not official NWS values.
T = Trace of Precipitation, MM = Missing Value Source: NWS Daily Summary

Daily Weather History Graph

Daily Weather History Graph

Search for Another Location

Airport:

Trip Planner

Search our weather history database for the weather conditions in past years. The results will help you decide how hot, cold, wet, or windy it might be!

Date:

Astronomy

Aug. 05, 2013 Rise Set
Actual Time 5:42 AM MST 7:23 PM MST
Civil Twilight 5:15 AM MST 7:50 PM MST
Nautical Twilight 4:43 AM MST 8:23 PM MST
Astronomical Twilight 4:09 AM MST 8:57 PM MST
Moon 4:40 AM MST (8/5) 6:28 PM MST (8/5)
Length of Visible Light 14h 34m
Length of Day
13h 40m
Waning Crescent, 1% of the Moon is Illuminated
Aug 5
Waning Crescent
Aug 6
New
Aug 14
First Quarter
Aug 20
Full
Aug 28
Last Quarter

Hourly Weather History & Observations

Time (MST) Temp. Heat Index Dew Point Humidity Pressure Visibility Wind Dir Wind Speed Gust Speed Precip Events Conditions
12:53 AM 87.1 °F 84.9 °F 53.1 °F 31% 29.80 in 10.0 mi West 3.5 mph - N/A   Clear
1:53 AM 88.0 °F - 52.0 °F 29% 29.80 in 10.0 mi NNE 4.6 mph - N/A   Clear
2:53 AM 88.0 °F - 52.0 °F 29% 29.80 in 10.0 mi North 3.5 mph - N/A   Clear
3:53 AM 87.1 °F - 50.0 °F 28% 29.81 in 10.0 mi Calm Calm - N/A   Clear
4:53 AM 84.0 °F - 50.0 °F 31% 29.82 in 10.0 mi Calm Calm - N/A   Clear
5:53 AM 82.0 °F - 48.9 °F 31% 29.84 in 10.0 mi Calm Calm - N/A   Clear
6:53 AM 84.0 °F - 48.9 °F 29% 29.86 in 10.0 mi SSE 3.5 mph - N/A   Clear
7:53 AM 86.0 °F 84.5 °F 55.0 °F 35% 29.90 in 10.0 mi SSE 9.2 mph - N/A   Clear
8:53 AM 89.1 °F 88.0 °F 57.9 °F 35% 29.92 in 10.0 mi SE 11.5 mph 20.7 mph N/A   Clear
9:53 AM 89.1 °F 89.0 °F 61.0 °F 39% 29.93 in 10.0 mi SE 9.2 mph - N/A   Clear
10:53 AM 89.1 °F 89.0 °F 61.0 °F 39% 29.93 in 10.0 mi SSE 9.2 mph - N/A   Clear
11:53 AM 90.0 °F 89.7 °F 60.1 °F 37% 29.91 in 10.0 mi SE 3.5 mph - N/A   Clear
12:53 PM 91.0 °F 90.2 °F 59.0 °F 34% 29.89 in 10.0 mi Calm Calm - N/A   Clear
1:53 PM 93.0 °F 91.7 °F 57.0 °F 30% 29.86 in 10.0 mi Variable 3.5 mph - N/A   Clear
2:53 PM 93.0 °F 92.0 °F 57.9 °F 31% 29.84 in 10.0 mi SSW 3.5 mph - 0.00 in Rain Light Rain
3:53 PM 95.0 °F 93.7 °F 57.0 °F 28% 29.81 in 10.0 mi Calm Calm - 0.00 in   Clear
4:53 PM 99.0 °F - 45.0 °F 16% 29.79 in 10.0 mi SSW 4.6 mph - N/A   Clear
5:53 PM 98.1 °F - 43.0 °F 15% 29.78 in 10.0 mi East 3.5 mph - N/A   Clear
6:53 PM 96.1 °F - 48.9 °F 20% 29.78 in 10.0 mi Calm Calm - N/A   Clear
7:53 PM 95.0 °F 92.5 °F 53.1 °F 24% 29.79 in 10.0 mi WSW 4.6 mph - N/A   Clear
8:53 PM 91.9 °F 91.8 °F 61.0 °F 35% 29.81 in 10.0 mi WSW 6.9 mph - N/A   Clear
9:53 PM 91.0 °F 90.9 °F 61.0 °F 36% 29.83 in 10.0 mi WSW 9.2 mph - N/A   Clear
10:53 PM 90.0 °F 90.0 °F 61.0 °F 38% 29.83 in 10.0 mi West 9.2 mph - N/A   Clear
11:53 PM 89.1 °F 89.3 °F 62.1 °F 40% 29.84 in 10.0 mi West 4.6 mph - N/A   Mostly Cloudy